Weather History for Charles City, IA

Change the Weather History Date:

Wednesday, January 18, 2012

  Actual Average Record
Temperature  
Mean Temperature 13 °F -  
Max Temperature 26 °F 23 °F 49 °F (1981)
Min Temperature 0 °F 6 °F -31 °F (1967)
Degree Days  
Heating Degree Days 52    
Moisture  
Dew Point 5 °F    
Average Humidity 78    
Maximum Humidity 85    
Minimum Humidity 63    
Precipitation  
Precipitation 0.00 in - - ()
Sea Level Pressure  
Sea Level Pressure 30.02 in    
Wind  
Wind Speed 9 mph (South)    
Max Wind Speed 26 mph    
Max Gust Speed 30 mph    
Visibility 10 miles    
Events      
Averages and records for this station are not official NWS values.
T = Trace of Precipitation, MM = Missing Value Source: NWS Daily Summary

Daily Weather History Graph

Daily Weather History Graph

Search for Another Location

Airport:

Trip Planner

Search our weather history database for the weather conditions in past years. The results will help you decide how hot, cold, wet, or windy it might be!

Date:

Astronomy

Jan. 18, 2012 Rise Set
Actual Time 7:37 AM CST 5:04 PM CST
Civil Twilight 7:06 AM CST 5:35 PM CST
Nautical Twilight 6:31 AM CST 6:10 PM CST
Astronomical Twilight 5:57 AM CST 6:44 PM CST
Moon 3:08 AM CST (1/18) 12:42 PM CST (1/18)
Length of Visible Light 10h 28m
Length of Day
9h 26m
Waning Crescent, 24% of the Moon is Illuminated
Jan 18
Waning Crescent
Jan 23
New
Jan 30
First Quarter
Feb 7
Full
Feb 14
Last Quarter

Hourly Weather History & Observations

Time (CST) Temp. Windchill Dew Point Humidity Pressure Visibility Wind Dir Wind Speed Gust Speed Precip Events Conditions
12:15 AM 3.2 °F -4.2 °F -0.4 °F 85% 30.26 in 10.0 mi West 3.5 mph - N/A   Clear
12:35 AM 3.2 °F - -2.2 °F 78% 30.25 in 10.0 mi Calm Calm - N/A   Clear
12:55 AM 3.2 °F - -0.4 °F 85% 30.24 in 10.0 mi Calm Calm - N/A   Clear
1:15 AM 1.4 °F -9.9 °F -2.2 °F 85% 30.24 in 10.0 mi SW 5.8 mph - N/A   Clear
1:35 AM 1.4 °F -8.3 °F -2.2 °F 85% 30.24 in 10.0 mi SW 4.6 mph - N/A   Clear
1:55 AM 1.4 °F - -2.2 °F 85% 30.23 in 10.0 mi Calm Calm - N/A   Clear
2:15 AM 1.4 °F -8.3 °F -2.2 °F 85% 30.23 in 10.0 mi SSW 4.6 mph - N/A   Clear
2:35 AM 1.4 °F -8.3 °F -4.0 °F 78% 30.22 in 10.0 mi South 4.6 mph - N/A   Clear
2:55 AM 1.4 °F -8.3 °F -2.2 °F 85% 30.21 in 10.0 mi South 4.6 mph - N/A   Clear
3:15 AM 1.4 °F -8.3 °F -2.2 °F 85% 30.19 in 10.0 mi South 4.6 mph - N/A   Clear
3:35 AM 1.4 °F -8.3 °F -2.2 °F 85% 30.19 in 10.0 mi SSE 4.6 mph - N/A   Clear
3:55 AM 1.4 °F -8.3 °F -2.2 °F 85% 30.19 in 10.0 mi South 4.6 mph - N/A   Clear
4:15 AM 1.4 °F -8.3 °F -2.2 °F 85% 30.19 in 10.0 mi South 4.6 mph - N/A   Clear
4:35 AM -0.4 °F -10.4 °F -4.0 °F 85% 30.19 in 10.0 mi South 4.6 mph - N/A   Clear
4:55 AM -0.4 °F -10.4 °F -4.0 °F 85% 30.18 in 10.0 mi SSE 4.6 mph - N/A   Clear
5:15 AM -0.4 °F -13.4 °F -4.0 °F 85% 30.16 in 10.0 mi SE 6.9 mph - N/A   Clear
5:35 AM -0.4 °F -13.4 °F -4.0 °F 85% 30.14 in 10.0 mi SE 6.9 mph - N/A   Clear
5:55 AM 1.4 °F -12.5 °F -2.2 °F 85% 30.14 in 10.0 mi SSE 8.1 mph - N/A   Clear
6:15 AM 1.4 °F -13.5 °F -2.2 °F 85% 30.14 in 10.0 mi South 9.2 mph - N/A   Clear
6:35 AM 1.4 °F -14.5 °F -2.2 °F 85% 30.13 in 10.0 mi South 10.4 mph - N/A   Clear
6:55 AM 1.4 °F -14.5 °F -2.2 °F 85% 30.12 in 10.0 mi SSE 10.4 mph - N/A   Clear
7:15 AM 3.2 °F -13.1 °F -2.2 °F 78% 30.11 in 10.0 mi South 11.5 mph - N/A   Clear
7:35 AM 3.2 °F -13.9 °F -0.4 °F 85% 30.11 in 10.0 mi SSE 12.7 mph - N/A   Clear
7:55 AM 3.2 °F -14.6 °F -0.4 °F 85% 30.10 in 10.0 mi SSE 13.8 mph - N/A   Clear
8:15 AM 5.0 °F -13.0 °F -0.4 °F 78% 30.09 in 10.0 mi SSE 15.0 mph - N/A   Clear
8:35 AM 6.8 °F -10.7 °F 1.4 °F 79% 30.08 in 10.0 mi SSE 15.0 mph 19.6 mph N/A   Scattered Clouds
8:55 AM 6.8 °F -11.8 °F 3.2 °F 85% 30.07 in 10.0 mi SSE 17.3 mph - N/A   Scattered Clouds
9:15 AM 8.6 °F -10.0 °F 3.2 °F 79% 30.06 in 10.0 mi South 18.4 mph 23.0 mph N/A   Clear
9:35 AM 8.6 °F -8.3 °F 3.2 °F 79% 30.05 in 10.0 mi South 15.0 mph - N/A   Clear
9:55 AM 10.4 °F -6.6 °F 5.0 °F 79% 30.04 in 10.0 mi South 16.1 mph - N/A   Clear
10:15 AM 12.2 °F -5.8 °F 6.8 °F 79% 30.02 in 10.0 mi South 19.6 mph 23.0 mph N/A   Clear
10:35 AM 12.2 °F -6.3 °F 6.8 °F 79% 30.00 in 10.0 mi South 20.7 mph - N/A   Clear
10:55 AM 14.0 °F -2.5 °F 8.6 °F 79% 29.99 in 10.0 mi South 17.3 mph - N/A   Clear
11:15 AM 15.8 °F -1.1 °F 8.6 °F 73% 29.98 in 10.0 mi South 19.6 mph - N/A   Clear
11:35 AM 15.8 °F -0.6 °F 8.6 °F 73% 29.96 in 10.0 mi South 18.4 mph - N/A   Clear
11:55 AM 17.6 °F 1.3 °F 10.4 °F 73% 29.93 in 10.0 mi South 19.6 mph 24.2 mph N/A   Clear
12:15 PM 19.4 °F 2.5 °F 10.4 °F 68% 29.90 in 10.0 mi South 23.0 mph 28.8 mph N/A   Clear
12:35 PM 21.2 °F 5.6 °F 12.2 °F 68% 29.89 in 10.0 mi South 20.7 mph 25.3 mph N/A   Clear
12:55 PM 21.2 °F 4.5 °F 12.2 °F 68% 29.86 in 10.0 mi South 24.2 mph 29.9 mph N/A   Clear
1:15 PM 23.0 °F 6.6 °F 12.2 °F 63% 29.85 in 10.0 mi South 25.3 mph 29.9 mph N/A   Clear
1:35 PM 23.0 °F 6.3 °F 12.2 °F 63% 29.83 in 10.0 mi South 26.5 mph - N/A   Clear
1:55 PM 21.2 °F 4.5 °F 12.2 °F 68% 29.83 in 10.0 mi South 24.2 mph 29.9 mph N/A   Clear
2:15 PM 23.0 °F 6.6 °F 14.0 °F 68% 29.81 in 10.0 mi South 25.3 mph 29.9 mph N/A   Scattered Clouds
2:35 PM 21.2 °F 6.0 °F 14.0 °F 74% 29.81 in 10.0 mi South 19.6 mph 26.5 mph N/A   Clear
2:55 PM 24.8 °F 10.7 °F 15.8 °F 69% 29.80 in 10.0 mi South 19.6 mph 26.5 mph N/A   Clear
3:15 PM 24.8 °F 10.3 °F 15.8 °F 69% 29.79 in 10.0 mi South 20.7 mph 24.2 mph N/A   Clear
3:35 PM 24.8 °F 10.0 °F 15.8 °F 69% 29.79 in 10.0 mi SSW 21.9 mph 25.3 mph N/A   Mostly Cloudy
3:55 PM 26.6 °F 13.4 °F 15.8 °F 64% 29.78 in 10.0 mi SSW 18.4 mph 21.9 mph N/A   Scattered Clouds
4:15 PM 24.8 °F 11.9 °F 15.8 °F 69% 29.78 in 10.0 mi SSW 16.1 mph 21.9 mph N/A   Clear
4:35 PM 24.8 °F 13.4 °F 15.8 °F 69% 29.77 in 10.0 mi South 12.7 mph - N/A   Clear
4:55 PM 23.0 °F 11.1 °F 15.8 °F 74% 29.78 in 10.0 mi SSW 12.7 mph - N/A   Clear
5:15 PM 21.2 °F 10.9 °F 15.8 °F 80% 29.77 in 10.0 mi SSW 9.2 mph - N/A   Clear
5:35 PM 21.2 °F 9.5 °F 15.8 °F 80% 29.77 in 10.0 mi SSW 11.5 mph - N/A   Clear
5:55 PM 21.2 °F 8.9 °F 15.8 °F 80% 29.75 in 10.0 mi SSW 12.7 mph - N/A   Clear
6:15 PM 23.0 °F 12.4 °F 17.6 °F 80% 29.76 in 10.0 mi SSW 10.4 mph - N/A   Clear
6:35 PM 23.0 °F 12.4 °F 17.6 °F 80% 29.76 in 10.0 mi SSW 10.4 mph - N/A   Clear
6:55 PM 23.0 °F 12.4 °F 17.6 °F 80% 29.78 in 10.0 mi SSW 10.4 mph - N/A   Clear
7:15 PM 23.0 °F 13.1 °F 17.6 °F 80% 29.77 in 10.0 mi SSW 9.2 mph - N/A   Clear
7:35 PM 21.2 °F 10.9 °F 17.6 °F 86% 29.76 in 10.0 mi SSW 9.2 mph - N/A   Clear
7:55 PM 23.0 °F 12.4 °F 17.6 °F 80% 29.76 in 10.0 mi SSW 10.4 mph - N/A   Clear
8:15 PM 23.0 °F 13.9 °F 17.6 °F 80% 29.75 in 10.0 mi SSW 8.1 mph - N/A   Clear
8:35 PM 23.0 °F 13.9 °F 17.6 °F 80% 29.76 in 10.0 mi WSW 8.1 mph - N/A   Clear
8:55 PM 24.8 °F 13.4 °F 17.6 °F 74% 29.77 in 5.0 mi West 12.7 mph - N/A   Scattered Clouds
9:35 PM 19.4 °F 3.2 °F 14.0 °F 80% 29.81 in 2.0 mi WNW 20.7 mph 33.4 mph N/A Snow Light Snow
9:55 PM 15.8 °F -1.9 °F 10.4 °F 79% 29.82 in 7.0 mi NW 21.9 mph 29.9 mph N/A   Mostly Cloudy
10:15 PM 12.2 °F -6.7 °F 5.0 °F 73% 29.83 in 10.0 mi NW 21.9 mph 32.2 mph N/A   Scattered Clouds
10:35 PM 12.2 °F -6.7 °F 5.0 °F 73% 29.83 in 10.0 mi NW 21.9 mph 31.1 mph N/A   Scattered Clouds
10:55 PM 10.4 °F -8.6 °F 3.2 °F 73% 29.84 in 10.0 mi NW 20.7 mph 28.8 mph N/A   Mostly Cloudy
11:15 PM 10.4 °F -9.1 °F 1.4 °F 67% 29.85 in 10.0 mi NW 21.9 mph 29.9 mph N/A   Mostly Cloudy
11:35 PM 8.6 °F -11.0 °F 1.4 °F 73% 29.85 in 10.0 mi NW 20.7 mph 25.3 mph N/A   Scattered Clouds
11:55 PM 6.8 °F -13.4 °F -0.4 °F 72% 29.86 in 10.0 mi NW 20.7 mph 24.2 mph N/A   Scattered Clouds